DECAYED
Showing default

POLAR SCOUT KODIAK, 43764 (Decayed)

Orbit data source: Space-Track

POLAR SCOUT KODIAK, 43764 was an American payload satellite in LEO that was launched on Mon, 03 Dec 2018 UTC via an FALCON 9 launch vehicle from the Air Force Western Test Range (AFWTR). Payload-class satellites include a variety of spacecraft equipped with specific instruments for various scientific and technological missions. These include communications satellites like Starlink; space stations such as the ISS; scientific satellites like the Hubble; Earth observation satellites from companies like Planet Labs, Umbra, and HawkEye 360; GPS; miniature CubeSats for education and research; and military/defense satellites.

Not visible in the next 10 days
Identifier
43764, 2018-099G
Orbit
Decayed
Country
Flag of USUS
Related business
Manufacturer
Millenium EI
Mission
Decayed Defense Technology
Bus & Motor
CUBESAT 6U, Unknown motor
Mass
10 kg wet, 10 kg dry
Launch date (UTC)
2018-12-03 (8 years ago)
Launch vehicle
FALCON 9
Launch site
Air Force Western Test Range (AFWTR)
Object type
Payload
Rocket body
Debris
Shape & HBR
Box + 3 Pan, 0.3 m
Radar Cross Section
0.054 m², Medium (>0.1 m² and < 1m²)

Expand to show TLE details & history
Last TLE update: 3 weeks ago

TLE from 3 weeks ago
0 POLAR SCOUT KODIAK
1 43764U 18099G   26215.79131193  .10288205  25601-5  48290-3 0  9992
2 43764  97.4045 304.1266 0015397 264.8057  95.1486 16.41468622422511
Epoch: 2026-08-03T18:59Z
TLE epoch observation values (Epoch: 2026-08-03T18:59:29.350Z)
Latitude
-0.00006°
Longitude
66.88496°
Altitude
166.071 km
Speed
7.806 km/s
True Right ascension
20h 16m 30s
True Declination
0° 00' 00"
Sunlit
Object was in full shadow at epoch
Visualization orbit readout
Latitude
Unknown
Longitude
Unknown
Altitude
Unknown
Speed
Unknown
Apparent Right ascension
Unknown
Apparent Declination
Unknown
Sunlit
N/A
Visualization observer readout
Local Sidereal Time
02:29:44
Azimuth
Unknown
Elevation
Unknown
Doppler factor
Unknown
Orbital elements
Apogee altitude
168.769 km
Perigee altitude
148.64 km
Semi-major axis
6,536.842 km
Eccentricity
0.00154
Inclination
97.4045°
RAAN
304.1266°
Arg. of periapsis
264.8057°
True anomaly
95.32429°
Mean anomaly
95.1486°
Eccentric anomaly
95.23645°
Mean motion
4.10668 °/min
Orbital period
87.66 mins
BSTAR
0.0004829
Loading maneuver chart data...
Computing Atmospheric mass density...
Loading historical data...
Loading historical data...
Loading historical data...
Loading historical data...
Loading historical data...
Loading historical data...
Loading historical data...

Documentation

Showing up to 5 results
|